Rolla, MO

7:30 AM CST on December 14, 2017 (GMT -0600)
Rolla National

Weather History for KVIH - March, 2014

Change the Weather History Date:

Saturday, March 8, 2014

  Actual Average Record
Temperature  
Mean Temperature 40 °F 43 °F  
Max Temperature 46 °F 53 °F 80 °F (1992)
Min Temperature 33 °F 32 °F 3 °F (1996)
Degree Days  
Heating Degree Days 25 23  
Month to date heating degree days 271 191  
Since 1 July heating degree days 4577 3981  
Cooling Degree Days 0 0  
Month to date cooling degree days 0 0  
Year to date cooling degree days 0 0  
Moisture  
Dew Point 30 °F    
Average Humidity 71    
Maximum Humidity 96    
Minimum Humidity 45    
Precipitation  
Precipitation 0.00 in 0.10 in 0.95 in (1958)
Month to date precipitation T 0.70  
Year to date precipitation 1.46 4.80  
Sea Level Pressure  
Sea Level Pressure 30.16 in    
Wind  
Wind Speed 8 mph (NNW)    
Max Wind Speed 15 mph    
Max Gust Speed 19 mph    
Visibility 4 miles    
Events      
T = Trace of Precipitation, MM = Missing Value Source: NWS Daily Summary

Daily Weather History Graph

Daily Weather History Graph

Search for Another Location

Airport or City:

Trip Planner

Search our weather history database for the weather conditions in past years. The results will help you decide how hot, cold, wet, or windy it might be!

Date:

Astronomy

Mar. 08, 2014 Rise Set
Actual Time 6:28 AM CST 6:07 PM CST
Civil Twilight 6:02 AM CST 6:33 PM CST
Nautical Twilight 5:31 AM CST 7:04 PM CST
Astronomical Twilight 5:01 AM CST 7:35 PM CST
Moon 11:15 AM CST (3/8) 1:00 AM CST (3/8)
Length of Visible Light 12h 31m
Length of Day
11h 38m
First Quarter, 52% of the Moon is Illuminated
Mar 8
First Quarter
Mar 16
Full
Mar 23
Last Quarter
Mar 30
New
Apr 7
First Quarter

Hourly Weather History & Observations

Time (CST) Temp. Windchill Dew Point Humidity Pressure Visibility Wind Dir Wind Speed Gust Speed Precip Events Conditions
12:53 AM 45.0 °F 38.9 °F 28.0 °F 52% 29.94 in 10.0 mi SSW 12.7 mph - N/A   Clear
1:53 AM 44.1 °F 39.0 °F 28.9 °F 55% 29.95 in 10.0 mi SSW 9.2 mph - N/A   Overcast
2:53 AM 39.9 °F - 27.0 °F 60% 29.97 in 10.0 mi Calm Calm - N/A   Clear
3:53 AM 34.0 °F 31.0 °F 27.0 °F 75% 29.98 in 10.0 mi North 3.5 mph - N/A   Clear
4:53 AM 36.0 °F 29.6 °F 30.0 °F 79% 30.01 in 9.0 mi North 8.1 mph - N/A   Clear
5:53 AM 33.1 °F 27.7 °F 30.9 °F 92% 30.02 in 4.0 mi North 5.8 mph - N/A   Clear
6:18 AM 34.0 °F 25.5 °F 30.9 °F 89% 30.03 in 3.0 mi NNW 11.5 mph - N/A   Scattered Clouds
6:27 AM 34.0 °F 26.0 °F 32.0 °F 92% 30.04 in 3.0 mi North 10.4 mph - N/A   Mostly Cloudy
6:41 AM 34.0 °F 25.0 °F 30.9 °F 89% 30.05 in 2.5 mi NNW 12.7 mph - N/A   Overcast
6:53 AM 34.0 °F 26.0 °F 30.9 °F 89% 30.07 in 1.8 mi NNW 10.4 mph - N/A   Overcast
7:53 AM 34.0 °F 26.0 °F 32.0 °F 92% 30.12 in 1.2 mi NW 10.4 mph - N/A   Overcast
8:53 AM 34.0 °F 25.5 °F 32.0 °F 92% 30.15 in 1.5 mi NNW 11.5 mph - N/A   Overcast
9:53 AM 34.0 °F 24.6 °F 30.9 °F 89% 30.17 in 1.8 mi NNW 13.8 mph - N/A   Overcast
10:06 AM 34.0 °F 25.5 °F 30.9 °F 89% 30.15 in 2.0 mi North 11.5 mph - N/A   Overcast
10:28 AM 34.0 °F 26.6 °F 30.9 °F 89% 30.17 in 1.8 mi NNW 9.2 mph - N/A   Overcast
10:53 AM 35.1 °F 27.9 °F 30.9 °F 85% 30.18 in 2.0 mi North 9.2 mph - N/A   Overcast
11:53 AM 36.0 °F 29.6 °F 30.9 °F 82% 30.18 in 2.5 mi NNW 8.1 mph - N/A   Haze
12:01 PM 36.0 °F 28.0 °F 30.9 °F 82% 30.16 in 2.5 mi NNW 11.5 mph - N/A   Haze
12:53 PM 36.0 °F 29.0 °F 30.9 °F 82% 30.18 in 2.5 mi NNW 9.2 mph - N/A   Haze
1:53 PM 36.0 °F 28.5 °F 30.0 °F 79% 30.18 in 2.5 mi NNW 10.4 mph - N/A   Haze
2:43 PM 36.0 °F 30.3 °F 30.0 °F 79% 30.17 in 3.0 mi NNW 6.9 mph - N/A   Haze
2:53 PM 36.0 °F 28.5 °F 30.0 °F 79% 30.20 in 3.0 mi NNW 10.4 mph - N/A   Haze
3:53 PM 36.0 °F 30.3 °F 30.0 °F 79% 30.23 in 3.0 mi NNW 6.9 mph - N/A   Haze
4:53 PM 37.0 °F 31.0 °F 30.9 °F 79% 30.23 in 3.0 mi NNW 8.1 mph - N/A   Haze
5:53 PM 36.0 °F 28.5 °F 30.0 °F 79% 30.25 in 3.0 mi North 10.4 mph - N/A   Haze
6:53 PM 35.1 °F 29.3 °F 30.0 °F 82% 30.26 in 4.0 mi North 6.9 mph - N/A   Haze
7:53 PM 35.1 °F 28.6 °F 30.0 °F 82% 30.27 in 4.0 mi North 8.1 mph - N/A   Haze
8:50 PM 35.6 °F 30.7 °F 30.2 °F 81% 30.27 in 4.0 mi NNW 5.8 mph - N/A   Haze
8:53 PM 35.1 °F 30.1 °F 30.0 °F 82% 30.30 in 4.0 mi NNW 5.8 mph - N/A   Haze
9:53 PM 35.1 °F 30.1 °F 30.0 °F 82% 30.31 in 4.0 mi NNW 5.8 mph - N/A   Haze
10:05 PM 35.1 °F 30.1 °F 30.0 °F 82% 30.28 in 4.0 mi NNW 5.8 mph - N/A   Haze
10:21 PM 34.0 °F 28.0 °F 30.0 °F 85% 30.28 in 4.0 mi NNW 6.9 mph - N/A   Overcast
10:53 PM 34.0 °F 29.8 °F 30.0 °F 85% 30.31 in 4.0 mi North 4.6 mph - N/A   Overcast
11:13 PM 34.0 °F 29.8 °F 30.0 °F 85% 30.27 in 4.0 mi North 4.6 mph - N/A   Overcast
11:53 PM 34.0 °F 28.8 °F 30.0 °F 85% 30.30 in 4.0 mi North 5.8 mph - N/A   Overcast